Location: Helsinki
(60.1699°N, 24.9384°E)
Time: 19:51:28
(UTC+03:00)

A-11 Canister half - Pass Details

Date: 28 May 2024
Orbit: 1525 x 1683 km, 47.3° (Epoch: 14 June)

Event Time Altitude Azimuth Distance (km) Brightness Sun altitude
Rises 00:03:07 0° 252° (WSW) 4,702 11.6 -6.9°
Reaches altitude 10° 00:06:23 10° 245° (WSW) 3,735 11.0 -7.1°
Maximum altitude 00:14:48 38° 182° (S) 2,244 9.4 -7.3°
Drops below altitude 10° 00:23:28 10° 119° (ESE) 3,844 10.7 -7.6°
Sets 00:26:53 0° 112° (ESE) 4,852 11.3 -7.7°
